Simultaneous Nadir Overpasses (SNOs) Predictions

Prediction of SNOs between AURA and NPP Satellite Orbit:

Table of predicted SNOs for the next 14.0 days since TLE Epoch: 4/14/2012
Index Date (AURA) Time (AURA) AURA Lat,Lon Date (NPP) Time (NPP) NPP Lat,Lon Distance(km) Time Diff (sec)
1 04/16/2012 19:58:24 -79.84, -40.03 04/16/2012 19:57:30 -79.84, -40.19 3.07 54
2 04/16/2012 20:47:43 80.09, 129.62 04/16/2012 20:48:06 80.09, 129.73 2.20 23
3 04/19/2012 12:14:49 -79.98, 76.97 04/19/2012 12:14:18 -79.99, 77.10 2.85 31
4 04/19/2012 13:04:10 80.15,-113.94 04/19/2012 13:04:57 80.16,-113.84 1.95 47
5 04/22/2012 04:31:18 -80.00,-167.02 04/22/2012 04:31:12 -80.00,-167.07 1.04 6
6 04/22/2012 05:20:39 80.16, 2.06 04/22/2012 05:21:51 80.16, 1.97 1.72 72
7 04/24/2012 19:58:23 79.88, 140.29 04/24/2012 19:57:25 79.88, 140.20 1.91 58
8 04/24/2012 20:47:45 -80.06, -50.56 04/24/2012 20:48:04 -80.06, -50.65 1.81 19
9 04/27/2012 12:14:49 79.97,-103.13 04/27/2012 12:14:16 79.97,-103.11 0.40 33




NCC Satellite Simultaneous Nadir Overpasses (SNOs) Prediction Service
